Wetterdaten: Mittwoch, 02.12.2009
Datum Zeit Temp. I. Temp. A. Boden 5 cm Feuchte A. Sonne Luftdruck Regen Wind
02.12.2009 00:01 22,0 C 2,7 C 3,0 C 94 % 0 % 1007 hPa 0,0 l/m 14,5 km/h (3 Bft)
02.12.2009 00:04 22,0 C 2,7 C 3,0 C 94 % 0 % 1007 hPa 0,0 l/m 10,8 km/h (2 Bft)
02.12.2009 00:07 22,0 C 2,7 C 3,0 C 94 % 0 % 1007 hPa 0,0 l/m 12,1 km/h (2 Bft)
02.12.2009 00:10 22,0 C 2,7 C 3,0 C 94 % 0 % 1007 hPa 0,0 l/m 10,2 km/h (2 Bft)
02.12.2009 00:13 22,0 C 2,7 C 3,0 C 94 % 0 % 1007 hPa 0,0 l/m 8,9 km/h (2 Bft)
02.12.2009 00:16 22,0 C 2,7 C 3,0 C 94 % 0 % 1007 hPa 0,0 l/m 9,8 km/h (2 Bft)
02.12.2009 00:19 22,0 C 2,7 C 3,0 C 94 % 0 % 1007 hPa 0,0 l/m 10,8 km/h (2 Bft)
02.12.2009 00:22 22,0 C 2,7 C 3,1 C 94 % 0 % 1007 hPa 0,0 l/m 10,6 km/h (2 Bft)
02.12.2009 00:25 22,0 C 2,7 C 3,0 C 94 % 0 % 1007 hPa 0,0 l/m 15,5 km/h (3 Bft)
02.12.2009 00:28 22,0 C 2,7 C 3,0 C 94 % 0 % 1007 hPa 0,0 l/m 14,2 km/h (3 Bft)
02.12.2009 00:31 22,0 C 2,7 C 3,0 C 94 % 0 % 1007 hPa 0,0 l/m 16,5 km/h (3 Bft)
02.12.2009 00:34 22,0 C 2,7 C 2,8 C 94 % 0 % 1007 hPa 0,0 l/m 16,1 km/h (3 Bft)
02.12.2009 00:37 22,0 C 2,7 C 2,9 C 94 % 0 % 1007 hPa 0,0 l/m 16,0 km/h (3 Bft)
02.12.2009 00:40 22,0 C 2,7 C 2,9 C 94 % 0 % 1007 hPa 0,0 l/m 12,3 km/h (3 Bft)
02.12.2009 00:43 22,0 C 2,7 C 3,0 C 94 % 0 % 1007 hPa 0,0 l/m 10,3 km/h (2 Bft)
02.12.2009 00:46 22,0 C 2,7 C 3,0 C 94 % 0 % 1007 hPa 0,0 l/m 11,1 km/h (2 Bft)
02.12.2009 00:49 22,0 C 2,7 C 3,0 C 94 % 0 % 1007 hPa 0,0 l/m 9,7 km/h (2 Bft)
02.12.2009 00:52 22,0 C 2,7 C 3,0 C 94 % 0 % 1007 hPa 0,0 l/m 8,7 km/h (2 Bft)
02.12.2009 00:55 22,0 C 2,7 C 3,0 C 94 % 0 % 1007 hPa 0,0 l/m 14,2 km/h (3 Bft)
02.12.2009 00:58 22,0 C 2,6 C 2,8 C 94 % 0 % 1007 hPa 0,0 l/m 16,8 km/h (3 Bft)
02.12.2009 01:01 22,0 C 2,6 C 2,8 C 94 % 0 % 1007 hPa 0,0 l/m 14,1 km/h (3 Bft)
02.12.2009 01:04 22,0 C 2,6 C 2,9 C 94 % 0 % 1007 hPa 0,0 l/m 11,7 km/h (2 Bft)
02.12.2009 01:07 22,0 C 2,6 C 2,8 C 94 % 0 % 1007 hPa 0,0 l/m 10,3 km/h (2 Bft)
02.12.2009 01:10 22,0 C 2,6 C 2,9 C 94 % 0 % 1008 hPa 0,0 l/m 9,5 km/h (2 Bft)
02.12.2009 01:13 22,0 C 2,6 C 2,8 C 94 % 0 % 1008 hPa 0,0 l/m 8,8 km/h (2 Bft)
02.12.2009 01:16 22,0 C 2,6 C 3,0 C 94 % 0 % 1008 hPa 0,0 l/m 3,6 km/h (1 Bft)
02.12.2009 01:19 22,0 C 2,6 C 3,1 C 94 % 0 % 1008 hPa 0,0 l/m 5,4 km/h (1 Bft)
02.12.2009 01:22 22,0 C 2,6 C 3,1 C 94 % 0 % 1008 hPa 0,0 l/m 5,9 km/h (2 Bft)
02.12.2009 01:25 22,0 C 2,6 C 3,1 C 94 % 0 % 1008 hPa 0,0 l/m 5,4 km/h (1 Bft)
02.12.2009 01:28 22,0 C 2,7 C 3,1 C 94 % 0 % 1008 hPa 0,0 l/m 9,5 km/h (2 Bft)
02.12.2009 01:31 22,0 C 2,7 C 3,0 C 94 % 0 % 1008 hPa 0,0 l/m 6,3 km/h (2 Bft)
02.12.2009 01:34 22,0 C 2,7 C 3,1 C 94 % 0 % 1008 hPa 0,0 l/m 4,6 km/h (1 Bft)
02.12.2009 01:37 22,0 C 2,7 C 3,2 C 94 % 0 % 1008 hPa 0,0 l/m 4,2 km/h (1 Bft)
02.12.2009 01:40 22,0 C 2,7 C 3,1 C 94 % 0 % 1008 hPa 0,0 l/m 1,9 km/h (1 Bft)
02.12.2009 01:43 22,0 C 2,7 C 3,1 C 94 % 0 % 1008 hPa 0,0 l/m 5,9 km/h (2 Bft)
02.12.2009 01:46 22,0 C 2,7 C 3,0 C 94 % 0 % 1008 hPa 0,0 l/m 9,3 km/h (2 Bft)
02.12.2009 01:49 22,0 C 2,7 C 3,1 C 94 % 0 % 1008 hPa 0,0 l/m 8,6 km/h (2 Bft)
02.12.2009 01:52 22,0 C 2,7 C 2,9 C 94 % 0 % 1008 hPa 0,0 l/m 8,4 km/h (2 Bft)
02.12.2009 01:55 22,0 C 2,7 C 3,1 C 94 % 0 % 1008 hPa 0,0 l/m 8,9 km/h (2 Bft)
02.12.2009 01:58 22,0 C 2,7 C 3,1 C 94 % 0 % 1008 hPa 0,0 l/m 6,8 km/h (2 Bft)
02.12.2009 02:01 22,0 C 2,7 C 3,0 C 94 % 0 % 1008 hPa 0,0 l/m 6,3 km/h (2 Bft)
02.12.2009 02:04 22,0 C 2,7 C 3,1 C 94 % 0 % 1008 hPa 0,0 l/m 6,3 km/h (2 Bft)
02.12.2009 02:07 22,0 C 2,7 C 3,0 C 94 % 0 % 1008 hPa 0,0 l/m 8,4 km/h (2 Bft)
02.12.2009 02:10 22,0 C 2,7 C 3,2 C 94 % 0 % 1008 hPa 0,0 l/m 4,6 km/h (1 Bft)
02.12.2009 02:13 22,0 C 2,7 C 3,2 C 94 % 0 % 1008 hPa 0,0 l/m 4,4 km/h (1 Bft)
02.12.2009 02:16 22,0 C 2,7 C 3,2 C 94 % 0 % 1008 hPa 0,0 l/m 5,2 km/h (1 Bft)
02.12.2009 02:19 22,0 C 2,7 C 3,3 C 94 % 0 % 1008 hPa 0,0 l/m 3,4 km/h (1 Bft)
02.12.2009 02:22 22,0 C 2,7 C 3,2 C 94 % 0 % 1008 hPa 0,0 l/m 7,2 km/h (2 Bft)
02.12.2009 02:25 22,0 C 2,7 C 3,2 C 94 % 0 % 1008 hPa 0,0 l/m 6,7 km/h (2 Bft)
02.12.2009 02:28 22,0 C 2,8 C 3,2 C 94 % 0 % 1008 hPa 0,0 l/m 4,8 km/h (1 Bft)
02.12.2009 02:31 22,0 C 2,8 C 3,2 C 94 % 0 % 1008 hPa 0,0 l/m 4,1 km/h (1 Bft)
02.12.2009 02:34 22,0 C 2,8 C 3,5 C 94 % 0 % 1008 hPa 0,0 l/m 0,0 km/h (0 Bft)
02.12.2009 02:37 22,0 C 2,8 C 3,5 C 94 % 0 % 1008 hPa 0,0 l/m 0,0 km/h (0 Bft)
02.12.2009 02:40 22,0 C 2,8 C 3,5 C 94 % 0 % 1008 hPa 0,0 l/m 0,7 km/h (0 Bft)
02.12.2009 02:43 22,0 C 2,8 C 3,2 C 94 % 0 % 1008 hPa 0,0 l/m 7,0 km/h (2 Bft)
02.12.2009 02:46 22,0 C 2,8 C 3,1 C 94 % 0 % 1008 hPa 0,0 l/m 7,9 km/h (2 Bft)
02.12.2009 02:49 22,0 C 2,8 C 3,2 C 94 % 0 % 1008 hPa 0,0 l/m 6,3 km/h (2 Bft)
02.12.2009 02:52 21,9 C 2,8 C 3,2 C 94 % 0 % 1009 hPa 0,0 l/m 7,2 km/h (2 Bft)
02.12.2009 02:55 21,9 C 2,8 C 3,2 C 94 % 0 % 1009 hPa 0,0 l/m 6,2 km/h (2 Bft)
02.12.2009 02:58 21,9 C 2,8 C 3,3 C 94 % 0 % 1009 hPa 0,0 l/m 5,0 km/h (1 Bft)
02.12.2009 03:01 21,9 C 2,8 C 3,3 C 94 % 0 % 1009 hPa 0,0 l/m 5,0 km/h (1 Bft)
02.12.2009 03:04 21,9 C 2,8 C 3,3 C 94 % 0 % 1009 hPa 0,0 l/m 3,0 km/h (1 Bft)
02.12.2009 03:07 21,9 C 2,8 C 3,4 C 94 % 0 % 1009 hPa 0,0 l/m 3,7 km/h (1 Bft)
02.12.2009 03:10 21,9 C 2,8 C 3,4 C 94 % 0 % 1009 hPa 0,0 l/m 3,0 km/h (1 Bft)
02.12.2009 03:13 21,9 C 2,8 C 3,6 C 94 % 0 % 1009 hPa 0,0 l/m 0,6 km/h (0 Bft)
02.12.2009 03:16 21,9 C 2,8 C 3,4 C 94 % 0 % 1009 hPa 0,0 l/m 3,6 km/h (1 Bft)
02.12.2009 03:19 21,9 C 2,8 C 3,3 C 94 % 0 % 1009 hPa 0,0 l/m 7,4 km/h (2 Bft)
02.12.2009 03:22 21,9 C 2,8 C 3,2 C 94 % 0 % 1009 hPa 0,0 l/m 5,8 km/h (2 Bft)
02.12.2009 03:25 21,9 C 2,8 C 3,2 C 94 % 0 % 1009 hPa 0,0 l/m 10,8 km/h (2 Bft)
02.12.2009 03:28 21,9 C 2,8 C 3,2 C 94 % 0 % 1009 hPa 0,0 l/m 9,2 km/h (2 Bft)
02.12.2009 03:31 21,9 C 2,8 C 3,1 C 94 % 0 % 1009 hPa 0,0 l/m 9,2 km/h (2 Bft)
02.12.2009 03:34 21,9 C 2,8 C 3,2 C 94 % 0 % 1009 hPa 0,0 l/m 6,8 km/h (2 Bft)
02.12.2009 03:37 21,9 C 2,7 C 3,1 C 94 % 0 % 1009 hPa 0,0 l/m 7,2 km/h (2 Bft)
02.12.2009 03:40 21,9 C 2,7 C 3,1 C 94 % 0 % 1009 hPa 0,0 l/m 6,1 km/h (2 Bft)
02.12.2009 03:43 21,9 C 2,7 C 3,1 C 94 % 0 % 1009 hPa 0,0 l/m 6,7 km/h (2 Bft)
02.12.2009 03:46 21,9 C 2,7 C 3,2 C 94 % 0 % 1009 hPa 0,0 l/m 1,3 km/h (1 Bft)
02.12.2009 03:49 21,9 C 2,7 C 3,3 C 94 % 0 % 1009 hPa 0,0 l/m 2,5 km/h (1 Bft)
02.12.2009 03:52 21,9 C 2,7 C 3,3 C 94 % 0 % 1009 hPa 0,0 l/m 0,3 km/h (0 Bft)
02.12.2009 03:55 21,9 C 2,7 C 3,4 C 94 % 0 % 1009 hPa 0,0 l/m 3,3 km/h (1 Bft)
02.12.2009 03:58 21,9 C 2,7 C 3,2 C 94 % 0 % 1009 hPa 0,0 l/m 7,2 km/h (2 Bft)
02.12.2009 04:01 21,9 C 2,7 C 3,2 C 94 % 0 % 1009 hPa 0,0 l/m 7,2 km/h (2 Bft)
02.12.2009 04:04 21,9 C 2,7 C 2,9 C 94 % 0 % 1009 hPa 0,0 l/m 7,2 km/h (2 Bft)
02.12.2009 04:07 22,0 C 2,6 C 3,1 C 94 % 0 % 1009 hPa 0,0 l/m 6,7 km/h (2 Bft)
02.12.2009 04:10 22,0 C 2,6 C 3,1 C 94 % 0 % 1009 hPa 0,0 l/m 4,8 km/h (1 Bft)
02.12.2009 04:13 21,9 C 2,6 C 3,0 C 94 % 0 % 1009 hPa 0,0 l/m 4,0 km/h (1 Bft)
02.12.2009 04:16 22,0 C 2,6 C 2,9 C 94 % 0 % 1009 hPa 0,0 l/m 6,6 km/h (2 Bft)
02.12.2009 04:19 22,0 C 2,6 C 3,1 C 94 % 0 % 1009 hPa 0,0 l/m 8,3 km/h (2 Bft)
02.12.2009 04:22 22,0 C 2,5 C 2,9 C 94 % 0 % 1009 hPa 0,0 l/m 5,9 km/h (2 Bft)
02.12.2009 04:25 21,9 C 2,5 C 3,0 C 94 % 0 % 1009 hPa 0,0 l/m 6,5 km/h (2 Bft)
02.12.2009 04:28 21,9 C 2,5 C 3,0 C 94 % 0 % 1009 hPa 0,0 l/m 6,9 km/h (2 Bft)
02.12.2009 04:31 22,0 C 2,5 C 3,0 C 94 % 0 % 1009 hPa 0,0 l/m 4,5 km/h (1 Bft)
02.12.2009 04:34 22,0 C 2,5 C 3,2 C 94 % 0 % 1009 hPa 0,0 l/m 1,9 km/h (1 Bft)
02.12.2009 04:37 21,9 C 2,5 C 3,2 C 94 % 0 % 1009 hPa 0,0 l/m 0,0 km/h (0 Bft)
02.12.2009 04:40 21,9 C 2,5 C 3,3 C 94 % 0 % 1009 hPa 0,0 l/m 0,0 km/h (0 Bft)
02.12.2009 04:43 21,9 C 2,5 C 3,3 C 94 % 0 % 1009 hPa 0,0 l/m 0,0 km/h (0 Bft)
02.12.2009 04:46 21,9 C 2,5 C 3,2 C 94 % 0 % 1009 hPa 0,0 l/m 3,8 km/h (1 Bft)
02.12.2009 04:49 21,9 C 2,5 C 3,2 C 94 % 0 % 1009 hPa 0,0 l/m 6,3 km/h (2 Bft)
02.12.2009 04:52 21,9 C 2,5 C 3,2 C 94 % 0 % 1009 hPa 0,0 l/m 6,3 km/h (2 Bft)
02.12.2009 04:55 21,9 C 2,5 C 3,2 C 94 % 0 % 1009 hPa 0,0 l/m 7,4 km/h (2 Bft)
02.12.2009 04:58 21,9 C 2,5 C 3,1 C 94 % 0 % 1009 hPa 0,0 l/m 5,5 km/h (1 Bft)
02.12.2009 05:01 21,9 C 2,5 C 3,1 C 94 % 0 % 1009 hPa 0,0 l/m 4,3 km/h (1 Bft)
02.12.2009 05:04 21,9 C 2,5 C 3,2 C 94 % 0 % 1009 hPa 0,0 l/m 1,9 km/h (1 Bft)
02.12.2009 05:07 21,9 C 2,5 C 3,2 C 94 % 0 % 1009 hPa 0,0 l/m 0,0 km/h (0 Bft)
02.12.2009 05:10 21,9 C 2,5 C 3,2 C 94 % 0 % 1009 hPa 0,0 l/m 0,0 km/h (0 Bft)
02.12.2009 05:13 21,9 C 2,5 C 3,2 C 94 % 0 % 1009 hPa 0,0 l/m 1,2 km/h (1 Bft)
02.12.2009 05:16 21,9 C 2,5 C 3,1 C 94 % 0 % 1009 hPa 0,0 l/m 1,2 km/h (1 Bft)
02.12.2009 05:19 21,9 C 2,5 C 3,1 C 94 % 0 % 1009 hPa 0,0 l/m 0,3 km/h (0 Bft)
02.12.2009 05:22 21,9 C 2,5 C 3,1 C 94 % 0 % 1009 hPa 0,0 l/m 0,1 km/h (0 Bft)
02.12.2009 05:25 21,9 C 2,6 C 3,1 C 94 % 0 % 1009 hPa 0,0 l/m 0,0 km/h (0 Bft)
02.12.2009 05:28 21,9 C 2,6 C 3,1 C 94 % 0 % 1009 hPa 0,0 l/m 0,3 km/h (0 Bft)
02.12.2009 05:31 21,9 C 2,6 C 3,1 C 94 % 0 % 1009 hPa 0,0 l/m 0,0 km/h (0 Bft)
02.12.2009 05:34 21,9 C 2,6 C 3,1 C 94 % 0 % 1009 hPa 0,0 l/m 0,6 km/h (0 Bft)
02.12.2009 05:37 21,9 C 2,6 C 2,9 C 94 % 0 % 1009 hPa 0,0 l/m 0,0 km/h (0 Bft)
02.12.2009 05:40 21,9 C 2,6 C 2,8 C 94 % 0 % 1009 hPa 0,0 l/m 0,0 km/h (0 Bft)
02.12.2009 05:43 21,9 C 2,6 C 2,8 C 94 % 0 % 1009 hPa 0,0 l/m 1,5 km/h (1 Bft)
02.12.2009 05:46 21,9 C 2,5 C 2,8 C 94 % 0 % 1009 hPa 0,0 l/m 3,7 km/h (1 Bft)
02.12.2009 05:49 21,9 C 2,6 C 2,8 C 94 % 0 % 1009 hPa 0,0 l/m 0,6 km/h (0 Bft)
02.12.2009 05:52 21,9 C 2,6 C 2,8 C 94 % 0 % 1009 hPa 0,0 l/m 3,8 km/h (1 Bft)
02.12.2009 05:56 21,9 C 2,5 C 2,8 C 94 % 0 % 1009 hPa 0,0 l/m 7,0 km/h (2 Bft)
02.12.2009 05:59 21,9 C 2,5 C 2,8 C 94 % 0 % 1009 hPa 0,0 l/m 5,4 km/h (1 Bft)
02.12.2009 06:02 21,9 C 2,5 C 2,9 C 94 % 0 % 1009 hPa 0,0 l/m 5,1 km/h (1 Bft)
02.12.2009 06:05 21,9 C 2,5 C 2,9 C 94 % 0 % 1009 hPa 0,0 l/m 5,1 km/h (1 Bft)
02.12.2009 06:08 21,9 C 2,5 C 2,9 C 94 % 0 % 1009 hPa 0,0 l/m 5,1 km/h (1 Bft)
02.12.2009 06:11 21,9 C 2,5 C 2,9 C 94 % 0 % 1009 hPa 0,0 l/m 5,1 km/h (1 Bft)
02.12.2009 06:14 21,9 C 2,5 C 2,9 C 94 % 0 % 1009 hPa 0,0 l/m 5,1 km/h (1 Bft)
02.12.2009 06:17 21,9 C 2,5 C 2,9 C 94 % 0 % 1009 hPa 0,0 l/m 5,1 km/h (1 Bft)
02.12.2009 06:20 21,9 C 2,5 C 2,9 C 94 % 0 % 1009 hPa 0,0 l/m 5,1 km/h (1 Bft)
02.12.2009 06:23 21,9 C 2,5 C 2,9 C 94 % 0 % 1009 hPa 0,0 l/m 5,1 km/h (1 Bft)
02.12.2009 06:26 21,9 C 2,5 C 2,9 C 94 % 0 % 1009 hPa 0,0 l/m 5,1 km/h (1 Bft)
02.12.2009 06:29 21,9 C 2,5 C 2,9 C 94 % 0 % 1009 hPa 0,0 l/m 5,1 km/h (1 Bft)
02.12.2009 06:32 21,9 C 2,5 C 2,9 C 94 % 0 % 1009 hPa 0,0 l/m 5,1 km/h (1 Bft)
02.12.2009 06:35 21,9 C 2,5 C 2,9 C 94 % 0 % 1009 hPa 0,0 l/m 5,1 km/h (1 Bft)
02.12.2009 06:38 21,9 C 2,5 C 2,9 C 94 % 0 % 1009 hPa 0,0 l/m 0,0 km/h (0 Bft)
02.12.2009 06:41 21,9 C 2,5 C 2,9 C 94 % 0 % 1009 hPa 0,0 l/m 0,3 km/h (0 Bft)
02.12.2009 06:44 21,9 C 2,5 C 2,9 C 94 % 0 % 1009 hPa 0,0 l/m 0,3 km/h (0 Bft)
02.12.2009 06:47 22,3 C 2,5 C 2,9 C 94 % 0 % 1010 hPa 0,0 l/m 0,3 km/h (0 Bft)
02.12.2009 06:50 22,3 C 2,5 C 2,9 C 94 % 0 % 1010 hPa 0,0 l/m 0,0 km/h (0 Bft)
02.12.2009 06:53 22,3 C 2,5 C 2,9 C 94 % 0 % 1010 hPa 0,0 l/m 0,0 km/h (0 Bft)
02.12.2009 06:56 22,3 C 2,5 C 3,0 C 94 % 0 % 1010 hPa 0,0 l/m 0,0 km/h (0 Bft)
02.12.2009 06:59 22,3 C 2,5 C 3,0 C 94 % 0 % 1010 hPa 0,0 l/m 0,0 km/h (0 Bft)
02.12.2009 07:02 22,3 C 2,6 C 2,9 C 94 % 0 % 1010 hPa 0,0 l/m 0,0 km/h (0 Bft)
02.12.2009 07:05 22,2 C 2,6 C 2,9 C 94 % 0 % 1010 hPa 0,0 l/m 0,0 km/h (0 Bft)
02.12.2009 07:08 21,2 C 2,6 C 2,3 C 94 % 0 % 1010 hPa 0,0 l/m 0,0 km/h (0 Bft)
02.12.2009 07:11 20,7 C 2,6 C 2,1 C 94 % 0 % 1010 hPa 0,0 l/m 0,0 km/h (0 Bft)
02.12.2009 07:14 20,7 C 2,6 C 1,9 C 94 % 0 % 1010 hPa 0,0 l/m 0,0 km/h (0 Bft)
02.12.2009 07:17 20,8 C 2,5 C 1,9 C 94 % 0 % 1010 hPa 0,0 l/m 0,0 km/h (0 Bft)
02.12.2009 07:20 21,0 C 2,5 C 1,8 C 94 % 0 % 1010 hPa 0,0 l/m 0,0 km/h (0 Bft)
02.12.2009 07:23 21,2 C 2,5 C 1,9 C 94 % 0 % 1010 hPa 0,0 l/m 0,0 km/h (0 Bft)
02.12.2009 07:26 21,3 C 2,5 C 1,9 C 94 % 0 % 1010 hPa 0,0 l/m 0,0 km/h (0 Bft)
02.12.2009 07:29 21,4 C 2,5 C 1,8 C 94 % 0 % 1010 hPa 0,0 l/m 0,0 km/h (0 Bft)
02.12.2009 07:32 21,6 C 2,6 C 1,8 C 94 % 0 % 1010 hPa 0,0 l/m 2,4 km/h (1 Bft)
02.12.2009 07:35 21,6 C 2,6 C 1,7 C 94 % 0 % 1010 hPa 0,0 l/m 0,3 km/h (0 Bft)
02.12.2009 07:38 21,7 C 2,6 C 1,7 C 94 % 0 % 1010 hPa 0,0 l/m 4,6 km/h (1 Bft)
02.12.2009 07:41 21,7 C 2,5 C 1,9 C 94 % 0 % 1010 hPa 0,0 l/m 1,8 km/h (1 Bft)
02.12.2009 07:44 21,8 C 2,5 C 1,9 C 94 % 0 % 1010 hPa 0,0 l/m 3,9 km/h (1 Bft)
02.12.2009 07:47 21,8 C 2,5 C 1,9 C 94 % 0 % 1010 hPa 0,0 l/m 2,7 km/h (1 Bft)
02.12.2009 07:50 21,8 C 2,5 C 2,1 C 94 % 0 % 1010 hPa 0,0 l/m 4,2 km/h (1 Bft)
02.12.2009 07:53 21,8 C 2,5 C 2,1 C 94 % 0 % 1010 hPa 0,0 l/m 9,0 km/h (2 Bft)
02.12.2009 07:56 21,8 C 2,5 C 1,9 C 94 % 0 % 1010 hPa 0,0 l/m 9,0 km/h (2 Bft)
02.12.2009 07:59 21,8 C 2,5 C 2,1 C 94 % 0 % 1010 hPa 0,0 l/m 0,6 km/h (0 Bft)
02.12.2009 08:02 21,8 C 2,5 C 1,9 C 94 % 0 % 1010 hPa 0,0 l/m 0,6 km/h (0 Bft)
02.12.2009 08:05 21,9 C 2,5 C 2,1 C 94 % 0 % 1010 hPa 0,0 l/m 4,4 km/h (1 Bft)
02.12.2009 08:08 21,8 C 2,5 C 2,2 C 94 % 0 % 1010 hPa 0,0 l/m 4,4 km/h (1 Bft)
02.12.2009 08:11 21,8 C 2,6 C 2,4 C 94 % 0 % 1010 hPa 0,0 l/m 4,2 km/h (1 Bft)
02.12.2009 08:14 21,8 C 2,6 C 2,5 C 94 % 0 % 1010 hPa 0,0 l/m 0,7 km/h (0 Bft)
02.12.2009 08:17 21,9 C 2,7 C 2,8 C 94 % 0 % 1010 hPa 0,0 l/m 0,1 km/h (0 Bft)
02.12.2009 08:20 21,9 C 2,7 C 2,7 C 94 % 0 % 1010 hPa 0,0 l/m 1,9 km/h (1 Bft)
02.12.2009 08:23 21,8 C 2,7 C 3,0 C 94 % 0 % 1010 hPa 0,0 l/m 0,1 km/h (0 Bft)
02.12.2009 08:26 21,8 C 2,9 C 3,5 C 95 % 0 % 1010 hPa 0,0 l/m 0,0 km/h (0 Bft)
02.12.2009 08:29 21,9 C 3,0 C 3,0 C 95 % 0 % 1010 hPa 0,0 l/m 0,0 km/h (0 Bft)
02.12.2009 08:32 21,8 C 3,0 C 3,0 C 95 % 0 % 1010 hPa 0,0 l/m 0,0 km/h (0 Bft)
02.12.2009 08:35 21,8 C 3,0 C 3,5 C 95 % 0 % 1010 hPa 0,0 l/m 0,0 km/h (0 Bft)
02.12.2009 08:38 21,8 C 3,0 C 3,2 C 95 % 0 % 1010 hPa 0,0 l/m 0,0 km/h (0 Bft)
02.12.2009 08:41 21,9 C 3,1 C 3,0 C 94 % 0 % 1010 hPa 0,0 l/m 0,1 km/h (0 Bft)
02.12.2009 08:44 21,9 C 3,1 C 2,9 C 94 % 0 % 1010 hPa 0,0 l/m 0,1 km/h (0 Bft)
02.12.2009 08:47 21,9 C 3,2 C 3,3 C 94 % 0 % 1010 hPa 0,0 l/m 2,4 km/h (1 Bft)
02.12.2009 08:50 21,9 C 3,1 C 3,3 C 94 % 0 % 1010 hPa 0,0 l/m 0,0 km/h (0 Bft)
02.12.2009 08:53 21,9 C 3,1 C 3,8 C 94 % 0 % 1010 hPa 0,0 l/m 0,4 km/h (0 Bft)
02.12.2009 08:56 21,9 C 3,1 C 3,9 C 93 % 0 % 1010 hPa 0,0 l/m 0,0 km/h (0 Bft)
02.12.2009 08:59 21,9 C 3,1 C 3,9 C 93 % 0 % 1010 hPa 0,0 l/m 0,0 km/h (0 Bft)
02.12.2009 09:02 21,9 C 3,1 C 4,1 C 93 % 0 % 1010 hPa 0,0 l/m 0,0 km/h (0 Bft)
02.12.2009 09:05 21,9 C 3,2 C 4,2 C 94 % 0 % 1010 hPa 0,0 l/m 0,0 km/h (0 Bft)
02.12.2009 09:08 21,9 C 3,2 C 3,9 C 93 % 0 % 1010 hPa 0,0 l/m 0,0 km/h (0 Bft)
02.12.2009 09:11 21,9 C 3,2 C 3,2 C 93 % 0 % 1010 hPa 0,0 l/m 0,3 km/h (0 Bft)
02.12.2009 09:14 21,9 C 3,2 C 2,8 C 93 % 0 % 1010 hPa 0,0 l/m 7,2 km/h (2 Bft)
02.12.2009 09:17 21,9 C 3,2 C 3,2 C 93 % 0 % 1010 hPa 0,0 l/m 1,3 km/h (1 Bft)
02.12.2009 09:20 21,9 C 3,3 C 3,2 C 93 % 0 % 1010 hPa 0,0 l/m 0,0 km/h (0 Bft)
02.12.2009 09:23 21,9 C 3,3 C 3,5 C 93 % 0 % 1010 hPa 0,0 l/m 0,0 km/h (0 Bft)
02.12.2009 09:26 21,9 C 3,3 C 3,3 C 93 % 0 % 1010 hPa 0,0 l/m 0,6 km/h (0 Bft)
02.12.2009 09:29 21,9 C 3,3 C 3,1 C 93 % 0 % 1010 hPa 0,0 l/m 4,3 km/h (1 Bft)
02.12.2009 09:32 21,9 C 3,4 C 3,0 C 93 % 0 % 1010 hPa 0,0 l/m 2,8 km/h (1 Bft)
02.12.2009 09:35 21,9 C 3,4 C 3,3 C 93 % 0 % 1010 hPa 0,0 l/m 3,6 km/h (1 Bft)
02.12.2009 09:38 21,9 C 3,3 C 3,2 C 92 % 0 % 1010 hPa 0,0 l/m 2,1 km/h (1 Bft)
02.12.2009 09:41 21,9 C 3,3 C 3,2 C 92 % 0 % 1010 hPa 0,0 l/m 1,3 km/h (1 Bft)
02.12.2009 09:44 21,9 C 3,3 C 3,1 C 93 % 0 % 1010 hPa 0,0 l/m 5,3 km/h (1 Bft)
02.12.2009 09:47 21,9 C 3,3 C 3,0 C 93 % 0 % 1010 hPa 0,0 l/m 5,5 km/h (1 Bft)
02.12.2009 09:50 21,9 C 3,4 C 3,0 C 93 % 0 % 1010 hPa 0,0 l/m 4,7 km/h (1 Bft)
02.12.2009 09:53 21,9 C 3,4 C 3,2 C 93 % 0 % 1010 hPa 0,0 l/m 1,0 km/h (0 Bft)
02.12.2009 09:56 21,9 C 3,4 C 3,2 C 93 % 0 % 1010 hPa 0,0 l/m 6,7 km/h (2 Bft)
02.12.2009 09:59 21,9 C 3,4 C 3,2 C 93 % 0 % 1010 hPa 0,0 l/m 3,3 km/h (1 Bft)
02.12.2009 10:02 21,9 C 3,4 C 3,2 C 93 % 0 % 1010 hPa 0,0 l/m 3,3 km/h (1 Bft)
02.12.2009 10:05 21,9 C 3,4 C 3,3 C 93 % 0 % 1010 hPa 0,0 l/m 0,0 km/h (0 Bft)
02.12.2009 10:08 21,9 C 3,4 C 3,9 C 93 % 0 % 1010 hPa 0,0 l/m 0,0 km/h (0 Bft)
02.12.2009 10:11 21,9 C 3,4 C 3,7 C 93 % 0 % 1010 hPa 0,0 l/m 4,1 km/h (1 Bft)
02.12.2009 10:14 21,9 C 3,4 C 3,3 C 93 % 0 % 1010 hPa 0,0 l/m 4,4 km/h (1 Bft)
02.12.2009 10:17 21,9 C 3,5 C 3,1 C 93 % 0 % 1010 hPa 0,0 l/m 5,4 km/h (1 Bft)
02.12.2009 10:20 21,8 C 3,5 C 3,2 C 93 % 0 % 1010 hPa 0,0 l/m 7,6 km/h (2 Bft)
02.12.2009 10:23 21,9 C 3,5 C 2,9 C 93 % 0 % 1010 hPa 0,0 l/m 5,7 km/h (1 Bft)
02.12.2009 10:26 21,9 C 3,5 C 3,0 C 92 % 0 % 1010 hPa 0,0 l/m 2,2 km/h (1 Bft)
02.12.2009 10:29 21,9 C 3,5 C 2,9 C 92 % 0 % 1010 hPa 0,0 l/m 8,5 km/h (2 Bft)
02.12.2009 10:32 21,9 C 3,4 C 3,0 C 92 % 0 % 1010 hPa 0,0 l/m 10,9 km/h (2 Bft)
02.12.2009 10:35 21,9 C 3,4 C 3,0 C 92 % 0 % 1010 hPa 0,0 l/m 10,9 km/h (2 Bft)
02.12.2009 10:38 21,9 C 3,4 C 3,0 C 92 % 0 % 1010 hPa 0,0 l/m 8,3 km/h (2 Bft)
02.12.2009 10:41 21,9 C 3,5 C 3,1 C 93 % 0 % 1010 hPa 0,0 l/m 4,3 km/h (1 Bft)
02.12.2009 10:44 21,9 C 3,6 C 3,1 C 93 % 0 % 1010 hPa 0,0 l/m 8,1 km/h (2 Bft)
02.12.2009 10:47 21,9 C 3,6 C 3,6 C 93 % 0 % 1010 hPa 0,0 l/m 6,1 km/h (2 Bft)
02.12.2009 10:50 21,9 C 3,6 C 4,0 C 92 % 0 % 1010 hPa 0,0 l/m 0,0 km/h (0 Bft)
02.12.2009 10:53 22,0 C 3,5 C 3,4 C 92 % 0 % 1010 hPa 0,0 l/m 0,0 km/h (0 Bft)
02.12.2009 10:56 21,9 C 3,5 C 3,4 C 92 % 0 % 1010 hPa 0,0 l/m 0,4 km/h (0 Bft)
02.12.2009 10:59 21,9 C 3,5 C 3,4 C 92 % 0 % 1010 hPa 0,0 l/m 3,4 km/h (1 Bft)
02.12.2009 11:02 21,9 C 3,6 C 3,3 C 92 % 0 % 1010 hPa 0,0 l/m 2,9 km/h (1 Bft)
02.12.2009 11:05 21,9 C 3,6 C 3,2 C 92 % 0 % 1010 hPa 0,0 l/m 4,6 km/h (1 Bft)
02.12.2009 11:08 21,9 C 3,6 C 3,3 C 92 % 0 % 1010 hPa 0,0 l/m 9,0 km/h (2 Bft)
02.12.2009 11:11 21,9 C 3,7 C 3,5 C 92 % 0 % 1010 hPa 0,0 l/m 5,3 km/h (1 Bft)
02.12.2009 11:14 21,9 C 3,7 C 3,9 C 92 % 0 % 1010 hPa 0,0 l/m 0,0 km/h (0 Bft)
02.12.2009 11:17 21,9 C 3,7 C 3,7 C 92 % 0 % 1010 hPa 0,0 l/m 0,0 km/h (0 Bft)
02.12.2009 11:20 21,9 C 3,7 C 3,5 C 92 % 0 % 1009 hPa 0,0 l/m 0,0 km/h (0 Bft)
02.12.2009 11:23 21,9 C 3,9 C 3,3 C 92 % 0 % 1009 hPa 0,0 l/m 8,5 km/h (2 Bft)
02.12.2009 11:26 21,9 C 3,8 C 3,5 C 92 % 0 % 1009 hPa 0,0 l/m 6,3 km/h (2 Bft)
02.12.2009 11:29 21,9 C 3,8 C 3,5 C 91 % 0 % 1009 hPa 0,0 l/m 10,3 km/h (2 Bft)
02.12.2009 11:32 21,9 C 3,8 C 3,4 C 91 % 0 % 1009 hPa 0,0 l/m 7,3 km/h (2 Bft)
02.12.2009 11:35 21,9 C 3,8 C 3,3 C 91 % 0 % 1009 hPa 0,0 l/m 6,5 km/h (2 Bft)
02.12.2009 11:38 21,9 C 3,8 C 3,3 C 91 % 0 % 1009 hPa 0,0 l/m 8,0 km/h (2 Bft)
02.12.2009 11:41 21,9 C 3,7 C 3,3 C 91 % 0 % 1009 hPa 0,0 l/m 3,8 km/h (1 Bft)
02.12.2009 11:44 22,0 C 3,7 C 3,5 C 91 % 0 % 1009 hPa 0,0 l/m 3,6 km/h (1 Bft)
02.12.2009 11:47 21,9 C 3,7 C 3,5 C 91 % 0 % 1009 hPa 0,0 l/m 1,8 km/h (1 Bft)
02.12.2009 11:50 21,9 C 3,7 C 3,6 C 91 % 0 % 1009 hPa 0,0 l/m 2,7 km/h (1 Bft)
02.12.2009 11:53 21,9 C 3,7 C 3,5 C 91 % 0 % 1009 hPa 0,0 l/m 7,2 km/h (2 Bft)
02.12.2009 11:56 21,9 C 3,8 C 3,6 C 91 % 0 % 1009 hPa 0,0 l/m 6,9 km/h (2 Bft)
02.12.2009 11:59 21,9 C 3,9 C 3,6 C 92 % 0 % 1009 hPa 0,0 l/m 3,1 km/h (1 Bft)
02.12.2009 12:02 21,9 C 3,9 C 3,6 C 92 % 0 % 1009 hPa 0,0 l/m 5,9 km/h (2 Bft)
02.12.2009 12:05 21,9 C 3,9 C 3,5 C 92 % 0 % 1009 hPa 0,0 l/m 5,9 km/h (2 Bft)
02.12.2009 12:08 21,9 C 3,9 C 3,4 C 92 % 0 % 1009 hPa 0,0 l/m 13,1 km/h (3 Bft)
02.12.2009 12:11 21,9 C 3,9 C 3,4 C 92 % 0 % 1009 hPa 0,0 l/m 10,1 km/h (2 Bft)
02.12.2009 12:14 21,9 C 3,9 C 3,5 C 91 % 0 % 1009 hPa 0,0 l/m 5,6 km/h (1 Bft)
02.12.2009 12:17 21,8 C 3,8 C 3,5 C 91 % 0 % 1009 hPa 0,0 l/m 6,3 km/h (2 Bft)
02.12.2009 12:20 21,9 C 3,9 C 3,5 C 91 % 0 % 1009 hPa 0,0 l/m 4,8 km/h (1 Bft)
02.12.2009 12:23 21,9 C 3,8 C 3,8 C 91 % 0 % 1009 hPa 0,0 l/m 3,4 km/h (1 Bft)
02.12.2009 12:26 21,9 C 3,8 C 3,5 C 91 % 0 % 1009 hPa 0,0 l/m 5,9 km/h (2 Bft)
02.12.2009 12:29 21,9 C 3,8 C 3,6 C 91 % 0 % 1009 hPa 0,0 l/m 7,0 km/h (2 Bft)
02.12.2009 12:32 21,9 C 3,8 C 3,9 C 91 % 0 % 1009 hPa 0,0 l/m 0,0 km/h (0 Bft)
02.12.2009 12:35 21,9 C 3,8 C 4,1 C 91 % 0 % 1009 hPa 0,0 l/m 0,0 km/h (0 Bft)
02.12.2009 12:38 21,9 C 3,7 C 4,4 C 91 % 0 % 1009 hPa 0,0 l/m 0,7 km/h (0 Bft)
02.12.2009 12:41 21,9 C 3,7 C 4,6 C 91 % 0 % 1009 hPa 0,0 l/m 0,0 km/h (0 Bft)
02.12.2009 12:44 21,9 C 3,8 C 4,6 C 91 % 0 % 1009 hPa 0,0 l/m 0,0 km/h (0 Bft)
02.12.2009 12:47 22,0 C 3,8 C 4,6 C 91 % 0 % 1009 hPa 0,0 l/m 0,0 km/h (0 Bft)
02.12.2009 12:50 22,0 C 3,9 C 4,4 C 91 % 0 % 1009 hPa 0,0 l/m 0,0 km/h (0 Bft)
02.12.2009 12:53 22,0 C 3,9 C 4,8 C 91 % 0 % 1009 hPa 0,0 l/m 0,0 km/h (0 Bft)
02.12.2009 12:56 22,0 C 3,9 C 4,4 C 91 % 0 % 1009 hPa 0,0 l/m 0,0 km/h (0 Bft)
02.12.2009 12:59 22,0 C 3,9 C 4,0 C 91 % 0 % 1009 hPa 0,0 l/m 0,0 km/h (0 Bft)
02.12.2009 13:02 21,9 C 3,9 C 4,2 C 91 % 0 % 1009 hPa 0,0 l/m 0,0 km/h (0 Bft)
02.12.2009 13:05 21,9 C 3,9 C 4,2 C 91 % 0 % 1009 hPa 0,0 l/m 0,0 km/h (0 Bft)
02.12.2009 13:08 21,9 C 3,9 C 4,1 C 91 % 0 % 1009 hPa 0,0 l/m 0,0 km/h (0 Bft)
02.12.2009 13:11 21,9 C 3,9 C 4,1 C 91 % 0 % 1009 hPa 0,0 l/m 0,4 km/h (0 Bft)
02.12.2009 13:14 21,9 C 3,9 C 4,0 C 90 % 0 % 1009 hPa 0,0 l/m 2,1 km/h (1 Bft)
02.12.2009 13:17 21,9 C 4,0 C 4,3 C 90 % 0 % 1009 hPa 0,0 l/m 0,3 km/h (0 Bft)
02.12.2009 13:20 21,9 C 4,1 C 4,3 C 90 % 0 % 1009 hPa 0,0 l/m 0,7 km/h (0 Bft)
02.12.2009 13:23 21,9 C 4,1 C 4,2 C 90 % 0 % 1009 hPa 0,0 l/m 1,2 km/h (1 Bft)
02.12.2009 13:26 21,9 C 4,1 C 4,8 C 89 % 0 % 1009 hPa 0,0 l/m 0,0 km/h (0 Bft)
02.12.2009 13:29 21,9 C 4,1 C 4,7 C 89 % 0 % 1009 hPa 0,0 l/m 0,0 km/h (0 Bft)
02.12.2009 13:32 21,9 C 4,2 C 4,4 C 90 % 0 % 1009 hPa 0,0 l/m 0,3 km/h (0 Bft)
02.12.2009 13:35 22,0 C 4,3 C 4,2 C 90 % 0 % 1009 hPa 0,0 l/m 0,3 km/h (0 Bft)
02.12.2009 13:38 21,9 C 4,3 C 4,2 C 90 % 0 % 1009 hPa 0,0 l/m 2,7 km/h (1 Bft)
02.12.2009 13:41 21,9 C 4,3 C 4,1 C 90 % 0 % 1009 hPa 0,0 l/m 3,0 km/h (1 Bft)
02.12.2009 13:44 21,9 C 4,3 C 4,0 C 90 % 0 % 1009 hPa 0,0 l/m 4,2 km/h (1 Bft)
02.12.2009 13:47 21,9 C 4,3 C 3,8 C 90 % 0 % 1009 hPa 0,0 l/m 12,9 km/h (3 Bft)
02.12.2009 13:50 21,9 C 4,2 C 3,6 C 89 % 0 % 1009 hPa 0,0 l/m 9,2 km/h (2 Bft)
02.12.2009 13:53 21,9 C 4,2 C 3,7 C 89 % 0 % 1009 hPa 0,0 l/m 8,9 km/h (2 Bft)
02.12.2009 13:56 21,9 C 4,3 C 3,8 C 89 % 0 % 1009 hPa 0,0 l/m 10,4 km/h (2 Bft)
02.12.2009 13:59 21,9 C 4,3 C 3,6 C 89 % 0 % 1009 hPa 0,0 l/m 9,0 km/h (2 Bft)
02.12.2009 14:02 21,9 C 4,3 C 3,6 C 89 % 0 % 1008 hPa 0,0 l/m 9,4 km/h (2 Bft)
02.12.2009 14:05 22,0 C 4,3 C 3,6 C 89 % 0 % 1008 hPa 0,0 l/m 9,4 km/h (2 Bft)
02.12.2009 14:08 22,0 C 4,2 C 3,7 C 89 % 0 % 1008 hPa 0,0 l/m 9,4 km/h (2 Bft)
02.12.2009 14:11 22,0 C 4,2 C 3,7 C 88 % 0 % 1008 hPa 0,0 l/m 9,2 km/h (2 Bft)
02.12.2009 14:14 21,9 C 4,2 C 3,6 C 89 % 0 % 1008 hPa 0,0 l/m 7,2 km/h (2 Bft)
02.12.2009 14:17 21,9 C 4,2 C 3,7 C 89 % 0 % 1008 hPa 0,0 l/m 1,8 km/h (1 Bft)
02.12.2009 14:20 21,9 C 4,1 C 3,9 C 89 % 0 % 1008 hPa 0,0 l/m 0,7 km/h (0 Bft)
02.12.2009 14:23 21,9 C 4,0 C 3,8 C 89 % 0 % 1008 hPa 0,0 l/m 4,5 km/h (1 Bft)
02.12.2009 14:26 21,9 C 4,0 C 3,6 C 89 % 0 % 1008 hPa 0,0 l/m 6,3 km/h (2 Bft)
02.12.2009 14:29 21,9 C 4,1 C 3,6 C 90 % 0 % 1008 hPa 0,0 l/m 5,8 km/h (2 Bft)
02.12.2009 14:32 21,9 C 4,1 C 3,6 C 90 % 0 % 1008 hPa 0,0 l/m 10,5 km/h (2 Bft)
02.12.2009 14:35 22,0 C 4,1 C 3,5 C 89 % 0 % 1008 hPa 0,0 l/m 7,6 km/h (2 Bft)
02.12.2009 14:38 21,9 C 4,1 C 3,4 C 89 % 0 % 1008 hPa 0,0 l/m 13,8 km/h (3 Bft)
02.12.2009 14:41 22,0 C 4,1 C 3,4 C 89 % 0 % 1008 hPa 0,0 l/m 3,2 km/h (1 Bft)
02.12.2009 14:44 22,0 C 4,1 C 3,4 C 89 % 0 % 1008 hPa 0,0 l/m 9,4 km/h (2 Bft)
02.12.2009 14:47 22,0 C 4,1 C 3,3 C 89 % 0 % 1008 hPa 0,0 l/m 12,5 km/h (3 Bft)
02.12.2009 14:50 22,0 C 4,0 C 3,4 C 88 % 0 % 1008 hPa 0,0 l/m 4,8 km/h (1 Bft)
02.12.2009 14:53 22,0 C 4,0 C 3,5 C 88 % 0 % 1008 hPa 0,0 l/m 5,0 km/h (1 Bft)
02.12.2009 14:56 22,0 C 4,0 C 3,5 C 88 % 0 % 1008 hPa 0,0 l/m 5,5 km/h (1 Bft)
02.12.2009 14:59 22,0 C 4,1 C 3,4 C 88 % 0 % 1008 hPa 0,0 l/m 5,7 km/h (1 Bft)
02.12.2009 15:02 21,9 C 4,1 C 3,4 C 88 % 0 % 1008 hPa 0,0 l/m 7,2 km/h (2 Bft)
02.12.2009 15:05 22,0 C 4,1 C 3,3 C 88 % 0 % 1008 hPa 0,0 l/m 11,5 km/h (2 Bft)
02.12.2009 15:08 22,0 C 4,1 C 3,4 C 88 % 0 % 1008 hPa 0,0 l/m 9,2 km/h (2 Bft)
02.12.2009 15:11 22,0 C 4,1 C 3,5 C 88 % 0 % 1008 hPa 0,0 l/m 9,4 km/h (2 Bft)
02.12.2009 15:14 22,0 C 4,1 C 3,4 C 88 % 0 % 1008 hPa 0,0 l/m 9,4 km/h (2 Bft)
02.12.2009 15:17 22,0 C 4,0 C 3,4 C 89 % 0 % 1008 hPa 0,0 l/m 10,4 km/h (2 Bft)
02.12.2009 15:20 22,0 C 3,9 C 3,3 C 88 % 0 % 1008 hPa 0,0 l/m 11,5 km/h (2 Bft)
02.12.2009 15:23 22,0 C 3,9 C 3,3 C 89 % 0 % 1008 hPa 0,0 l/m 11,5 km/h (2 Bft)
02.12.2009 15:26 22,0 C 3,9 C 3,3 C 89 % 0 % 1008 hPa 0,0 l/m 11,0 km/h (2 Bft)
02.12.2009 15:29 22,0 C 4,0 C 3,3 C 89 % 0 % 1008 hPa 0,0 l/m 9,4 km/h (2 Bft)
02.12.2009 15:32 22,0 C 3,9 C 3,2 C 89 % 0 % 1008 hPa 0,0 l/m 9,0 km/h (2 Bft)
02.12.2009 15:35 22,0 C 4,0 C 3,2 C 89 % 0 % 1008 hPa 0,0 l/m 10,1 km/h (2 Bft)
02.12.2009 15:38 22,0 C 4,0 C 3,2 C 89 % 0 % 1008 hPa 0,0 l/m 12,6 km/h (3 Bft)
02.12.2009 15:41 22,0 C 3,9 C 3,1 C 89 % 0 % 1008 hPa 0,0 l/m 13,0 km/h (3 Bft)
02.12.2009 15:44 22,0 C 3,9 C 3,1 C 89 % 0 % 1008 hPa 0,0 l/m 12,3 km/h (3 Bft)
02.12.2009 15:47 22,0 C 3,9 C 3,1 C 89 % 0 % 1008 hPa 0,0 l/m 14,6 km/h (3 Bft)
02.12.2009 15:50 22,0 C 3,9 C 3,0 C 89 % 0 % 1008 hPa 0,0 l/m 13,7 km/h (3 Bft)
02.12.2009 15:53 22,0 C 3,9 C 3,0 C 89 % 0 % 1008 hPa 0,0 l/m 11,3 km/h (2 Bft)
02.12.2009 15:56 22,0 C 3,8 C 3,0 C 88 % 0 % 1008 hPa 0,0 l/m 8,7 km/h (2 Bft)
02.12.2009 15:59 22,0 C 3,8 C 3,0 C 89 % 0 % 1008 hPa 0,0 l/m 11,7 km/h (2 Bft)
02.12.2009 16:02 22,0 C 3,8 C 2,9 C 89 % 0 % 1008 hPa 0,0 l/m 11,2 km/h (2 Bft)
02.12.2009 16:05 22,0 C 3,8 C 3,0 C 89 % 0 % 1008 hPa 0,0 l/m 10,0 km/h (2 Bft)
02.12.2009 16:08 22,0 C 3,8 C 3,0 C 89 % 0 % 1008 hPa 0,0 l/m 7,8 km/h (2 Bft)
02.12.2009 16:11 22,0 C 3,8 C 2,9 C 89 % 0 % 1008 hPa 0,0 l/m 7,8 km/h (2 Bft)
02.12.2009 16:14 22,0 C 3,8 C 2,8 C 89 % 0 % 1008 hPa 0,0 l/m 9,0 km/h (2 Bft)
02.12.2009 16:17 22,0 C 3,7 C 2,8 C 89 % 0 % 1008 hPa 0,0 l/m 8,3 km/h (2 Bft)
02.12.2009 16:20 22,0 C 3,7 C 2,8 C 89 % 0 % 1008 hPa 0,0 l/m 8,6 km/h (2 Bft)
02.12.2009 16:23 22,0 C 3,7 C 2,8 C 89 % 0 % 1008 hPa 0,0 l/m 4,6 km/h (1 Bft)
02.12.2009 16:26 22,1 C 3,7 C 2,7 C 89 % 0 % 1008 hPa 0,0 l/m 8,7 km/h (2 Bft)
02.12.2009 16:29 22,1 C 3,7 C 2,7 C 89 % 0 % 1008 hPa 0,0 l/m 6,2 km/h (2 Bft)
02.12.2009 16:32 22,2 C 3,7 C 2,7 C 89 % 0 % 1008 hPa 0,0 l/m 12,0 km/h (2 Bft)
02.12.2009 16:35 22,3 C 3,5 C 2,8 C 89 % 0 % 1008 hPa 0,0 l/m 6,0 km/h (2 Bft)
02.12.2009 16:38 22,3 C 3,5 C 2,8 C 89 % 0 % 1008 hPa 0,0 l/m 4,6 km/h (1 Bft)
02.12.2009 16:41 22,3 C 3,5 C 2,7 C 89 % 0 % 1008 hPa 0,0 l/m 6,9 km/h (2 Bft)
02.12.2009 16:44 22,3 C 3,5 C 2,7 C 89 % 0 % 1008 hPa 0,0 l/m 0,7 km/h (0 Bft)
02.12.2009 16:47 22,2 C 3,4 C 2,7 C 89 % 0 % 1008 hPa 0,0 l/m 5,2 km/h (1 Bft)
02.12.2009 16:50 22,0 C 3,4 C 2,6 C 89 % 0 % 1008 hPa 0,0 l/m 1,1 km/h (1 Bft)
02.12.2009 16:53 22,0 C 3,4 C 2,6 C 89 % 0 % 1008 hPa 0,0 l/m 1,3 km/h (1 Bft)
02.12.2009 16:56 22,0 C 3,4 C 2,6 C 89 % 0 % 1008 hPa 0,0 l/m 4,1 km/h (1 Bft)
02.12.2009 16:59 22,0 C 3,4 C 2,5 C 89 % 0 % 1008 hPa 0,0 l/m 5,7 km/h (1 Bft)
02.12.2009 17:02 22,0 C 3,4 C 2,6 C 89 % 0 % 1008 hPa 0,0 l/m 5,3 km/h (1 Bft)
02.12.2009 17:05 22,1 C 3,4 C 2,6 C 89 % 0 % 1008 hPa 0,0 l/m 1,6 km/h (1 Bft)
02.12.2009 17:08 22,1 C 3,4 C 2,6 C 89 % 0 % 1008 hPa 0,0 l/m 4,4 km/h (1 Bft)
02.12.2009 17:11 22,1 C 3,4 C 2,7 C 89 % 0 % 1008 hPa 0,0 l/m 4,8 km/h (1 Bft)
02.12.2009 17:14 22,1 C 3,4 C 2,7 C 89 % 0 % 1008 hPa 0,0 l/m 3,0 km/h (1 Bft)
02.12.2009 17:17 22,1 C 3,3 C 2,7 C 89 % 0 % 1008 hPa 0,0 l/m 4,6 km/h (1 Bft)
02.12.2009 17:20 22,1 C 3,3 C 2,7 C 89 % 0 % 1008 hPa 0,0 l/m 10,7 km/h (2 Bft)
02.12.2009 17:23 22,2 C 3,3 C 2,7 C 89 % 0 % 1008 hPa 0,0 l/m 7,4 km/h (2 Bft)
02.12.2009 17:26 22,2 C 3,3 C 2,7 C 89 % 0 % 1008 hPa 0,0 l/m 8,1 km/h (2 Bft)
02.12.2009 17:29 22,2 C 3,2 C 2,7 C 89 % 0 % 1008 hPa 0,0 l/m 8,1 km/h (2 Bft)
02.12.2009 17:32 22,2 C 3,2 C 2,6 C 89 % 0 % 1008 hPa 0,0 l/m 7,4 km/h (2 Bft)
02.12.2009 17:35 22,3 C 3,2 C 2,6 C 89 % 0 % 1008 hPa 0,0 l/m 2,1 km/h (1 Bft)
02.12.2009 17:38 22,3 C 3,2 C 2,6 C 89 % 0 % 1008 hPa 0,0 l/m 7,3 km/h (2 Bft)
02.12.2009 17:41 22,3 C 3,2 C 2,5 C 89 % 0 % 1008 hPa 0,0 l/m 3,6 km/h (1 Bft)
02.12.2009 17:44 22,3 C 3,2 C 2,3 C 89 % 0 % 1008 hPa 0,0 l/m 9,8 km/h (2 Bft)
02.12.2009 17:47 22,3 C 3,2 C 2,2 C 89 % 0 % 1008 hPa 0,0 l/m 5,5 km/h (1 Bft)
02.12.2009 17:50 22,2 C 3,2 C 2,1 C 89 % 0 % 1008 hPa 0,0 l/m 1,8 km/h (1 Bft)
02.12.2009 17:53 22,2 C 3,2 C 2,1 C 89 % 0 % 1008 hPa 0,0 l/m 5,7 km/h (1 Bft)
02.12.2009 17:56 22,2 C 3,1 C 1,9 C 89 % 0 % 1008 hPa 0,0 l/m 10,6 km/h (2 Bft)
02.12.2009 17:59 22,3 C 3,1 C 1,7 C 89 % 0 % 1008 hPa 0,0 l/m 3,7 km/h (1 Bft)
02.12.2009 18:02 22,2 C 3,0 C 1,6 C 89 % 0 % 1008 hPa 0,0 l/m 2,6 km/h (1 Bft)
02.12.2009 18:05 22,2 C 3,0 C 1,7 C 89 % 0 % 1008 hPa 0,0 l/m 0,3 km/h (0 Bft)
02.12.2009 18:08 22,2 C 3,0 C 1,6 C 89 % 0 % 1008 hPa 0,0 l/m 0,3 km/h (0 Bft)
02.12.2009 18:11 21,6 C 2,7 C 1,9 C 89 % 0 % 1008 hPa 0,0 l/m 0,3 km/h (0 Bft)
02.12.2009 18:14 20,3 C 2,7 C 2,1 C 90 % 0 % 1008 hPa 0,0 l/m 0,0 km/h (0 Bft)
02.12.2009 18:17 19,2 C 2,7 C 2,0 C 90 % 0 % 1008 hPa 0,0 l/m 2,8 km/h (1 Bft)
02.12.2009 18:20 18,9 C 2,7 C 2,4 C 90 % 0 % 1008 hPa 0,0 l/m 0,0 km/h (0 Bft)
02.12.2009 18:23 19,2 C 2,7 C 2,7 C 90 % 0 % 1008 hPa 0,0 l/m 0,0 km/h (0 Bft)
02.12.2009 18:26 20,1 C 2,7 C 2,6 C 90 % 0 % 1008 hPa 0,0 l/m 0,0 km/h (0 Bft)
02.12.2009 18:29 20,4 C 2,7 C 2,6 C 90 % 0 % 1008 hPa 0,0 l/m 0,0 km/h (0 Bft)
02.12.2009 18:32 20,7 C 2,7 C 2,9 C 90 % 0 % 1008 hPa 0,0 l/m 0,0 km/h (0 Bft)
02.12.2009 18:35 20,9 C 2,7 C 3,0 C 90 % 0 % 1008 hPa 0,0 l/m 0,0 km/h (0 Bft)
02.12.2009 18:38 21,1 C 2,7 C 3,0 C 90 % 0 % 1008 hPa 0,0 l/m 0,0 km/h (0 Bft)
02.12.2009 18:41 21,1 C 2,7 C 2,9 C 90 % 0 % 1008 hPa 0,0 l/m 0,0 km/h (0 Bft)
02.12.2009 18:44 21,3 C 2,8 C 2,6 C 90 % 0 % 1008 hPa 0,0 l/m 0,0 km/h (0 Bft)
02.12.2009 18:47 21,4 C 2,8 C 2,7 C 90 % 0 % 1008 hPa 0,0 l/m 0,0 km/h (0 Bft)
02.12.2009 18:50 21,5 C 2,8 C 2,7 C 90 % 0 % 1008 hPa 0,0 l/m 0,0 km/h (0 Bft)
02.12.2009 18:53 21,6 C 2,8 C 3,0 C 90 % 0 % 1008 hPa 0,0 l/m 0,0 km/h (0 Bft)
02.12.2009 18:56 21,6 C 2,8 C 2,9 C 90 % 0 % 1008 hPa 0,0 l/m 0,0 km/h (0 Bft)
02.12.2009 18:59 21,6 C 2,8 C 3,0 C 90 % 0 % 1008 hPa 0,0 l/m 0,0 km/h (0 Bft)
02.12.2009 19:02 21,7 C 2,8 C 2,8 C 90 % 0 % 1008 hPa 0,0 l/m 0,0 km/h (0 Bft)
02.12.2009 19:05 21,7 C 2,8 C 3,0 C 90 % 0 % 1008 hPa 0,0 l/m 0,0 km/h (0 Bft)
02.12.2009 19:08 21,8 C 2,8 C 3,0 C 90 % 0 % 1008 hPa 0,0 l/m 0,0 km/h (0 Bft)
02.12.2009 19:11 21,8 C 2,9 C 3,1 C 91 % 0 % 1008 hPa 0,0 l/m 0,0 km/h (0 Bft)
02.12.2009 19:14 21,8 C 2,9 C 2,9 C 91 % 0 % 1008 hPa 0,0 l/m 0,0 km/h (0 Bft)
02.12.2009 19:17 21,8 C 2,9 C 2,4 C 91 % 0 % 1008 hPa 0,0 l/m 0,1 km/h (0 Bft)
02.12.2009 19:20 21,8 C 2,9 C 2,4 C 91 % 0 % 1008 hPa 0,0 l/m 0,1 km/h (0 Bft)
02.12.2009 19:23 21,8 C 2,9 C 2,5 C 91 % 0 % 1008 hPa 0,0 l/m 0,0 km/h (0 Bft)
02.12.2009 19:26 21,8 C 2,9 C 2,4 C 91 % 0 % 1008 hPa 0,0 l/m 0,0 km/h (0 Bft)
02.12.2009 19:29 21,8 C 2,9 C 2,4 C 91 % 0 % 1008 hPa 0,0 l/m 0,0 km/h (0 Bft)
02.12.2009 19:32 21,8 C 3,0 C 2,4 C 91 % 0 % 1008 hPa 0,0 l/m 0,0 km/h (0 Bft)
02.12.2009 19:35 21,8 C 3,0 C 2,5 C 91 % 0 % 1008 hPa 0,0 l/m 0,0 km/h (0 Bft)
02.12.2009 19:38 21,8 C 3,0 C 2,6 C 91 % 0 % 1008 hPa 0,0 l/m 0,0 km/h (0 Bft)
02.12.2009 19:41 21,8 C 3,0 C 2,4 C 91 % 0 % 1008 hPa 0,0 l/m 3,0 km/h (1 Bft)
02.12.2009 19:44 21,8 C 3,0 C 2,4 C 91 % 0 % 1008 hPa 0,0 l/m 3,3 km/h (1 Bft)
02.12.2009 19:47 21,8 C 3,0 C 2,3 C 91 % 0 % 1008 hPa 0,0 l/m 3,3 km/h (1 Bft)
02.12.2009 19:50 21,8 C 3,0 C 2,5 C 91 % 0 % 1008 hPa 0,0 l/m 0,0 km/h (0 Bft)
02.12.2009 19:53 21,8 C 3,0 C 2,5 C 91 % 0 % 1008 hPa 0,0 l/m 0,0 km/h (0 Bft)
02.12.2009 19:56 21,8 C 3,0 C 2,5 C 91 % 0 % 1008 hPa 0,0 l/m 0,0 km/h (0 Bft)
02.12.2009 19:59 21,8 C 3,0 C 2,6 C 91 % 0 % 1008 hPa 0,0 l/m 0,0 km/h (0 Bft)
02.12.2009 20:02 21,8 C 3,0 C 2,8 C 91 % 0 % 1008 hPa 0,0 l/m 0,0 km/h (0 Bft)
02.12.2009 20:05 21,8 C 3,0 C 3,0 C 91 % 0 % 1008 hPa 0,0 l/m 0,0 km/h (0 Bft)
02.12.2009 20:08 21,8 C 2,9 C 2,8 C 91 % 0 % 1008 hPa 0,0 l/m 0,0 km/h (0 Bft)
02.12.2009 20:11 21,8 C 2,9 C 2,7 C 91 % 0 % 1008 hPa 0,0 l/m 0,0 km/h (0 Bft)
02.12.2009 20:14 21,8 C 2,8 C 2,8 C 90 % 0 % 1008 hPa 0,0 l/m 0,0 km/h (0 Bft)
02.12.2009 20:17 21,8 C 2,8 C 2,8 C 90 % 0 % 1008 hPa 0,0 l/m 0,0 km/h (0 Bft)
02.12.2009 20:20 21,8 C 2,8 C 2,6 C 90 % 0 % 1008 hPa 0,0 l/m 0,0 km/h (0 Bft)
02.12.2009 20:23 21,8 C 2,8 C 2,7 C 90 % 0 % 1008 hPa 0,0 l/m 0,0 km/h (0 Bft)
02.12.2009 20:26 21,8 C 2,8 C 2,5 C 90 % 0 % 1008 hPa 0,0 l/m 0,0 km/h (0 Bft)
02.12.2009 20:29 21,9 C 2,7 C 2,2 C 90 % 0 % 1008 hPa 0,0 l/m 0,0 km/h (0 Bft)
02.12.2009 20:32 21,8 C 2,7 C 2,1 C 90 % 0 % 1008 hPa 0,0 l/m 0,0 km/h (0 Bft)
02.12.2009 20:35 21,8 C 2,7 C 2,2 C 90 % 0 % 1008 hPa 0,0 l/m 0,0 km/h (0 Bft)
02.12.2009 20:38 21,8 C 2,5 C 2,2 C 90 % 0 % 1008 hPa 0,0 l/m 0,0 km/h (0 Bft)
02.12.2009 20:41 21,8 C 2,5 C 2,2 C 91 % 0 % 1008 hPa 0,0 l/m 0,0 km/h (0 Bft)
02.12.2009 20:44 21,8 C 2,5 C 2,0 C 91 % 0 % 1008 hPa 0,0 l/m 0,0 km/h (0 Bft)
02.12.2009 20:47 21,8 C 2,3 C 1,8 C 91 % 0 % 1008 hPa 0,0 l/m 0,0 km/h (0 Bft)
02.12.2009 20:50 21,8 C 2,3 C 0,9 C 91 % 0 % 1008 hPa 0,0 l/m 0,0 km/h (0 Bft)
02.12.2009 20:53 21,8 C 2,3 C 0,7 C 91 % 0 % 1008 hPa 0,0 l/m 0,0 km/h (0 Bft)
02.12.2009 20:56 21,8 C 2,3 C 0,6 C 91 % 0 % 1008 hPa 0,0 l/m 0,0 km/h (0 Bft)
02.12.2009 20:59 21,8 C 2,3 C 0,5 C 91 % 0 % 1008 hPa 0,0 l/m 0,0 km/h (0 Bft)
02.12.2009 21:02 21,8 C 2,1 C 0,6 C 91 % 0 % 1008 hPa 0,0 l/m 0,0 km/h (0 Bft)
02.12.2009 21:05 21,9 C 2,0 C 0,8 C 91 % 0 % 1008 hPa 0,0 l/m 0,0 km/h (0 Bft)
02.12.2009 21:08 21,9 C 1,9 C 0,9 C 91 % 0 % 1008 hPa 0,0 l/m 0,0 km/h (0 Bft)
02.12.2009 21:11 21,9 C 1,9 C 1,1 C 91 % 0 % 1008 hPa 0,0 l/m 0,0 km/h (0 Bft)
02.12.2009 21:14 21,9 C 1,9 C 1,1 C 91 % 0 % 1008 hPa 0,0 l/m 0,0 km/h (0 Bft)
02.12.2009 21:17 21,9 C 1,9 C 0,8 C 91 % 0 % 1008 hPa 0,0 l/m 0,0 km/h (0 Bft)
02.12.2009 21:20 21,9 C 1,8 C 0,7 C 91 % 0 % 1008 hPa 0,0 l/m 0,0 km/h (0 Bft)
02.12.2009 21:23 21,9 C 1,8 C 0,5 C 91 % 0 % 1008 hPa 0,0 l/m 0,0 km/h (0 Bft)
02.12.2009 21:26 21,9 C 1,8 C 0,2 C 91 % 0 % 1008 hPa 0,0 l/m 0,0 km/h (0 Bft)
02.12.2009 21:29 21,9 C 1,8 C 0,0 C 91 % 0 % 1008 hPa 0,0 l/m 0,0 km/h (0 Bft)
02.12.2009 21:32 21,9 C 1,8 C 0,1 C 91 % 0 % 1008 hPa 0,0 l/m 0,0 km/h (0 Bft)
02.12.2009 21:35 21,9 C 1,5 C 0,0 C 91 % 0 % 1008 hPa 0,0 l/m 0,0 km/h (0 Bft)
02.12.2009 21:38 21,9 C 1,5 C -0,1 C 91 % 0 % 1008 hPa 0,0 l/m 0,0 km/h (0 Bft)
02.12.2009 21:41 21,9 C 1,5 C -0,2 C 91 % 0 % 1008 hPa 0,0 l/m 0,0 km/h (0 Bft)
02.12.2009 21:44 21,8 C 1,2 C -0,1 C 91 % 0 % 1008 hPa 0,0 l/m 0,0 km/h (0 Bft)
02.12.2009 21:47 21,8 C 1,2 C -0,1 C 91 % 0 % 1008 hPa 0,0 l/m 0,0 km/h (0 Bft)
02.12.2009 21:50 21,8 C 1,2 C 0,0 C 91 % 0 % 1008 hPa 0,0 l/m 0,0 km/h (0 Bft)
02.12.2009 21:53 21,9 C 1,1 C 0,0 C 91 % 0 % 1008 hPa 0,0 l/m 0,0 km/h (0 Bft)
02.12.2009 21:56 21,9 C 1,1 C -0,2 C 91 % 0 % 1008 hPa 0,0 l/m 0,0 km/h (0 Bft)
02.12.2009 21:59 21,9 C 1,1 C -0,2 C 91 % 0 % 1007 hPa 0,0 l/m 0,0 km/h (0 Bft)
02.12.2009 22:02 21,9 C 1,1 C 0,0 C 91 % 0 % 1008 hPa 0,0 l/m 0,0 km/h (0 Bft)
02.12.2009 22:05 21,9 C 1,1 C -0,1 C 91 % 0 % 1008 hPa 0,0 l/m 0,0 km/h (0 Bft)
02.12.2009 22:08 21,9 C 1,1 C -0,1 C 91 % 0 % 1008 hPa 0,0 l/m 0,0 km/h (0 Bft)
02.12.2009 22:11 21,9 C 1,1 C 0,0 C 91 % 0 % 1008 hPa 0,0 l/m 0,0 km/h (0 Bft)
02.12.2009 22:14 21,9 C 1,1 C 0,0 C 91 % 0 % 1008 hPa 0,0 l/m 0,0 km/h (0 Bft)
02.12.2009 22:17 21,9 C 1,0 C -0,1 C 92 % 0 % 1008 hPa 0,0 l/m 0,0 km/h (0 Bft)
02.12.2009 22:20 21,9 C 1,0 C -0,1 C 92 % 0 % 1008 hPa 0,0 l/m 0,0 km/h (0 Bft)
02.12.2009 22:23 21,9 C 0,9 C -0,1 C 91 % 0 % 1008 hPa 0,0 l/m 0,0 km/h (0 Bft)
02.12.2009 22:26 21,9 C 0,9 C 0,1 C 92 % 0 % 1008 hPa 0,0 l/m 0,0 km/h (0 Bft)
02.12.2009 22:29 21,9 C 0,8 C 0,3 C 92 % 0 % 1008 hPa 0,0 l/m 0,0 km/h (0 Bft)
02.12.2009 22:32 21,9 C 0,8 C 0,5 C 92 % 0 % 1008 hPa 0,0 l/m 0,1 km/h (0 Bft)
02.12.2009 22:35 21,9 C 0,8 C 0,5 C 92 % 0 % 1008 hPa 0,0 l/m 0,1 km/h (0 Bft)
02.12.2009 22:38 21,9 C 0,8 C 0,5 C 92 % 0 % 1007 hPa 0,0 l/m 2,1 km/h (1 Bft)
02.12.2009 22:41 21,8 C 1,0 C 0,6 C 92 % 0 % 1007 hPa 0,0 l/m 0,5 km/h (0 Bft)
02.12.2009 22:44 21,9 C 1,1 C 1,0 C 92 % 0 % 1007 hPa 0,0 l/m 0,0 km/h (0 Bft)
02.12.2009 22:47 21,9 C 1,1 C 0,9 C 92 % 0 % 1007 hPa 0,0 l/m 0,0 km/h (0 Bft)
02.12.2009 22:50 21,8 C 1,2 C 0,9 C 92 % 0 % 1007 hPa 0,0 l/m 0,0 km/h (0 Bft)
02.12.2009 22:53 21,8 C 1,2 C 1,2 C 92 % 0 % 1007 hPa 0,0 l/m 0,0 km/h (0 Bft)
02.12.2009 22:56 21,8 C 1,2 C 1,5 C 92 % 0 % 1007 hPa 0,0 l/m 0,0 km/h (0 Bft)
02.12.2009 22:59 21,9 C 1,2 C 1,6 C 92 % 0 % 1007 hPa 0,0 l/m 0,3 km/h (0 Bft)
02.12.2009 23:02 21,9 C 1,2 C 1,4 C 92 % 0 % 1008 hPa 0,0 l/m 0,0 km/h (0 Bft)
02.12.2009 23:05 21,9 C 1,2 C 1,4 C 92 % 0 % 1008 hPa 0,0 l/m 0,0 km/h (0 Bft)
02.12.2009 23:08 21,9 C 1,4 C 0,7 C 93 % 0 % 1008 hPa 0,0 l/m 0,0 km/h (0 Bft)
02.12.2009 23:11 21,8 C 1,4 C 0,8 C 93 % 0 % 1008 hPa 0,0 l/m 0,0 km/h (0 Bft)
02.12.2009 23:14 21,9 C 1,4 C 0,8 C 93 % 0 % 1007 hPa 0,0 l/m 0,0 km/h (0 Bft)
02.12.2009 23:17 21,9 C 1,4 C 1,1 C 93 % 0 % 1007 hPa 0,0 l/m 0,0 km/h (0 Bft)
02.12.2009 23:20 21,9 C 1,4 C 1,5 C 93 % 0 % 1008 hPa 0,0 l/m 0,0 km/h (0 Bft)
02.12.2009 23:23 21,9 C 1,5 C 1,1 C 93 % 0 % 1008 hPa 0,0 l/m 0,0 km/h (0 Bft)
02.12.2009 23:26 21,9 C 1,5 C 1,2 C 93 % 0 % 1008 hPa 0,0 l/m 0,0 km/h (0 Bft)
02.12.2009 23:29 21,9 C 1,5 C 1,5 C 92 % 0 % 1007 hPa 0,0 l/m 0,0 km/h (0 Bft)
02.12.2009 23:32 21,9 C 1,4 C 1,7 C 92 % 0 % 1007 hPa 0,0 l/m 0,0 km/h (0 Bft)
02.12.2009 23:35 21,9 C 1,4 C 1,7 C 92 % 0 % 1007 hPa 0,0 l/m 0,0 km/h (0 Bft)
02.12.2009 23:38 21,9 C 1,4 C 1,2 C 93 % 0 % 1007 hPa 0,0 l/m 0,4 km/h (0 Bft)
02.12.2009 23:41 21,9 C 1,4 C 1,6 C 93 % 0 % 1007 hPa 0,0 l/m 0,0 km/h (0 Bft)
02.12.2009 23:44 21,9 C 1,4 C 1,6 C 93 % 0 % 1007 hPa 0,0 l/m 0,3 km/h (0 Bft)
02.12.2009 23:47 21,9 C 1,3 C 1,1 C 93 % 0 % 1007 hPa 0,0 l/m 0,4 km/h (0 Bft)
02.12.2009 23:50 21,9 C 1,3 C 1,2 C 93 % 0 % 1007 hPa 0,0 l/m 0,3 km/h (0 Bft)
02.12.2009 23:53 21,9 C 1,4 C 1,4 C 93 % 0 % 1007 hPa 0,0 l/m 0,2 km/h (0 Bft)
02.12.2009 23:56 21,9 C 1,5 C 1,2 C 93 % 0 % 1007 hPa 0,0 l/m 0,4 km/h (0 Bft)
02.12.2009 23:59 21,9 C 1,5 C 1,3 C 93 % 0 % 1007 hPa 0,0 l/m 3,5 km/h (1 Bft)
_ Min-Zeit 18:20 22:29 21:41 14:11 - 00:01 - 02:34
Minimum _ 18,9 C 0,8 C -0,2 C 88 % - 1007 hPa - 0,0 km/h (0 Bft)
_ Max-Zeit 06:47 13:35 12:53 08:26 00:01 06:47 00:01 00:58
Maximum _ 22,3 C 4,3 C 4,8 C 95 % 0 % 1010 hPa 0,0 l/m 16,8 km/h
W-NW (3 Bft)
Durchschnitt _ 21,9 C 2,9 C 2,7 C 92 % #0 min. 1009 hPa #0,0 l/m 3,9 km/h (1 Bft)